AirNav   ProFlight Series 2 Aviation Headset
 
 811 users online  

8TN3 Raby Airpark
Farragut, Tennessee, USA

GOING TO FARRAGUT?


FAA INFORMATION EFFECTIVE 13 AUGUST 2020

Location

FAA Identifier: 8TN3
Lat/Long: 35-50-30.0000N 084-10-52.0000W
35-50.500000N 084-10.866667W
35.8416667,-84.1811111
(estimated)
Elevation: 830 ft. / 253 m (estimated)
Variation: 04W (1995)
From city: 2 miles NE of FARRAGUT, TN
Time zone: UTC -4 (UTC -5 during Standard Time)
Zip code: 37922

Airport Operations

Airport use: Private use. Permission required prior to landing
Activation date: 06/1998
Control tower: no
ARTCC: ATLANTA CENTER
FSS: NASHVILLE FLIGHT SERVICE STATION
Attendance: UNATNDD
Segmented circle: no

Airport Communications

WX ASOS at TYS (9 nm E): PHONE 865-981-4053
WX AWOS-3 at DKX (17 nm NE): 125.375 (865-579-6151)

Nearby radio navigation aids

VOR radial/distance  VOR name  Freq  Var
VXVr258/14.4VOLUNTEER VORTAC116.4003W
HCHr087/39.0HINCH MOUNTAIN VOR/DME117.6002W

 
NDB name  Hdg/Dist  Freq  Var  ID
MC MINN COUNTY038/32.624203WMMI -- -- ..
JEFFERSON249/37.934604WJXT .--- -..- -

Airport Services

Runway Information

Runway 5/23

Dimensions: 1300 x 50 ft. / 396 x 15 m
Surface: turf
RUNWAY 5  RUNWAY 23
Traffic pattern: leftleft
Obstructions: 40 ft. trees40 ft. trees

Airport Ownership and Management from official FAA records

Ownership: Privately-owned
Owner: JASON RABY
1313 CHOTO RD.
KNOXVILLE, TN 37922
Phone 865-966-3108
Manager: PAUL ROBERTSON
1108 HARVEY ROAD
KNOXVILLE, TN 37922
Phone 865-966-1649

Airport Operational Statistics

Aircraft based on the field: 2
Single engine airplanes: 1
Helicopters: 1
    

Additional Remarks

FOR CD CTC ATLANTA ARTCC AT 770-210-7692.

Instrument Procedures

There are no published instrument procedures at 8TN3.

Some nearby airports with instrument procedures:

KTYS - Mc Ghee Tyson Airport (9 nm E)
KDKX - Knoxville Downtown Island Airport (17 nm NE)
KMNV - Monroe County Airport (20 nm SW)
KRKW - Rockwood Municipal Airport (25 nm W)
KJAU - Colonel Tommy C Stiner Airfield (30 nm N)
 
Loc | Ops | Rwys | IFR | FBO | Links
Com | Nav | Svcs | Stats | Notes
Area around 8TN3 (Raby Airpark)
 
Road maps at: MapQuest Bing Google
 
Aerial photo
No photo
 
Sectional chart

 
Airport distance calculator
Flying to Raby Airpark? Find the distance to fly.

From to 8TN3

Sunrise and sunset
Times for 13-Aug-2020
 Local
(UTC-4)
 Zulu
(UTC)
Morning civil twilight06:2810:28
Sunrise06:5610:56
Sunset20:2700:27
Evening civil twilight20:5400:54

Current date and time
Zulu (UTC)  13-Aug-2020 12:06:58
Local (UTC-4)  13-Aug-2020 08:06:58
 
METAR
KTYS 
10nm E 
131153Z 08003KT 4SM BR SCT006 BKN150 BKN250 22/21 A3005 RMK AO2 SLP164 T02220211 10239 20217 53012
KOQT 
11nm N 
131153Z AUTO 00000KT 10SM CLR 23/21 A3008 RMK AO2 SLP166 T02330211 10239 20222 53012
KDKX 
17nm NE 
131155Z AUTO 00000KT 10SM CLR 22/21 A3006 RMK A01
TAF
KTYS 
10nm E 
131132Z 1312/1412 05003KT P6SM FEW006 SCT150 FM131600 VRB04KT P6SM SCT040 SCT080 FM132100 VRB03KT P6SM VCSH BKN050 BKN100 FM140100 VRB03KT P6SM BKN100
NOTAMs
Click for the latest NOTAMs
NOTAMs are issued by the DoD/FAA and will open in a separate window not controlled by AirNav.

 

 
 

Would you like to see your business listed on this page?

 If your business provides an interesting product or service to pilots, flight crews, aircraft, or users of the Raby Airpark, you should consider listing it here.  To start the listing process, click on the button below
 
Add a business
 

Other Pages about Raby Airpark

Update a link
 
Copyright © AirNav, LLC. All rights reserved. Privacy Policy  Contact